Location: Vihti�l�
(61.3833°N, 23.0667°E)
Time: 03:09:09
(UTC+00:00)

USA 305 - Pass Details

Date: 29 November 2020
Orbit: 566 x 578 km, 54.0° (Epoch: 11 January)

Event Time Altitude Azimuth Distance (km) Brightness Sun altitude
Exits shadow 04:04:18 27° 212° (SSW) 1,129 4.2 -20.2°
Maximum altitude 04:05:15 30° 188° (S) 1,055 4.2 -20.1°
Drops below altitude 10° 04:09:01 10° 127° (SE) 1,894 6.5 -19.6°
Sets 04:11:28 0° 117° (ESE) 2,793 7.8 -19.4°
